Hourly Data Report for October 19, 2014

All times are specified in Local Standard Time (LST). Add 1 hour to adjust for Daylight Saving Time where and when it is observed.

GJOA HAVEN A
NUNAVUT

68°38'08.000" N
95°51'01.000" W
46.90 m
2302337
71597
YHK

Download Data

Hourly Data (October 2014)
Hourly Data Report for October 19, 2014
Temp Definition
°C
Dew Point Temp Definition
°C
Rel Hum Definition
%
Wind Dir Definition
10's deg

Wind Spd Definition
km/h
Visibility Definition
km
Stn Press Definition
kPa
Hmdx Definition


Wind Chill Definition


Weather Definition


TIME
00:00 Legend Double Dagger -3.6 -3.7 99 15 21 16.1 99.77   -10 Snow
01:00 Legend Double Dagger -3.4 -3.5 99 15 15 16.1 99.77   -9 LegendNANA
02:00 Legend Double Dagger -3.1 -3.1 100 13 11 16.1 99.76   -7 LegendNANA
03:00 Legend Double Dagger -3.0 -3.0 100 10 8 1.6 99.75   -6 Freezing Rain,Snow
04:00 Legend Double Dagger -3.0 -3.0 100 8 9 1.2 99.74   -7 Snow
05:00 Legend Double Dagger -2.9 -2.9 100 13 5 1.2 99.72   -5 Snow
06:00 Legend Double Dagger -3.0 -3.0 100 12 5 16.1 99.73   -5 LegendNANA
07:00 Legend Double Dagger -2.8 -2.8 100   0 4.8 99.72     Fog
08:00 Legend Double Dagger -3.2 -3.2 100 31 5 0.4 99.72   -5 Freezing Fog
09:00 Legend Double Dagger -3.0 -3.0 100 29 5 6.4 99.72   -5 Snow
10:00 Legend Double Dagger -2.8 -2.8 100 29 11 1.6 99.75   -7 Freezing Rain,Snow
11:00 Legend Double Dagger -2.8 -2.8 100 34 18 4.8 99.74   -8 Freezing Rain,Fog
12:00 Legend Double Dagger -3.1 -3.1 100 32 17 3.2 99.75   -9 Snow
13:00 Legend Double Dagger -3.6 -3.7 99 31 22 2.0 99.77   -10 Snow
14:00 Legend Double Dagger -4.7 -4.8 99 33 30 2.8 99.83   -13 Snow
15:00 Legend Double Dagger -6.4 -6.7 98 33 34 16.1 99.87   -15 Snow
16:00 Legend Double Dagger -8.0 -8.5 96 33 28 11.3 99.95   -17 LegendNANA
17:00 Legend Double Dagger -6.9 -7.3 97 33 34 16.1 100.02   -16 LegendNANA
18:00 Legend Double Dagger -8.4 -8.9 96 33 32 6.4 100.09   -18 Fog
19:00 Legend Double Dagger -9.3 -9.8 96 33 32 4.0 100.14   -19 Fog
20:00 Legend Double Dagger -6.9 -7.3 97 33 28 16.1 100.23   -15 LegendNANA
21:00 Legend Double Dagger -6.8 -7.2 97 33 30 16.1 100.28   -15 LegendNANA
22:00 Legend Double Dagger -6.5 -6.9 97 33 30 16.1 100.34   -15 LegendNANA
23:00 Legend Double Dagger -6.5 -6.9 97 33 28 16.1 100.42   -15 LegendNANA

Notes on Data Quality.

Legend

  • E = Estimated
  • M = Missing
  • NA = Not Available
  • ‡ = Partner data that is not subject to review by the National Climate Archives
Date modified: